FW3590 Weather Reports


Display with metric or nautical units.
time (UTC)temp
F
wind
direction
speed
MPH
gust
MPH
rain 1hr
in
rain 24hr
in
rain mn
in
humidity
%
barometer
mb
20190920113143 58 268 0.0 0.0 0.00 0.00 0.00 63 1028.9
20190920111538 58 268 0.0 0.0 0.00 0.00 0.00 64 1029.1
20190920110030 58 268 0.0 3.0 0.00 0.00 0.00 64 1029.2
20190920104611 57 267 3.0 5.0 0.00 0.00 0.00 65 1029.1
20190920103105 57 270 3.0 5.0 0.00 0.00 0.00 67 1029.2
20190920101604 56 270 2.0 5.0 0.00 0.00 0.00 68 1029.4
20190920100010 56 272 0.0 4.0 0.00 0.00 0.00 69 1029.4
20190920094506 55 272 3.0 5.0 0.00 0.00 0.00 70 1029.6
20190920093158 54 273 0.0 4.0 0.00 0.00 0.00 74 1029.7
20190920091634 54 272 3.0 4.0 0.00 0.00 0.00 75 1029.7
20190920090134 53 273 2.0 5.0 0.00 0.00 0.00 78 1029.9
20190920084638 52 275 2.0 5.0 0.00 0.00 0.00 80 1029.9
20190920083136 51 277 1.0 3.0 0.00 0.00 0.00 83 1030.0
20190920081739 50 276 0.0 4.0 0.00 0.00 0.00 83 1029.9
20190920080122 50 273 3.0 5.0 0.00 0.00 0.00 82 1029.8
20190920074600 50 261 4.0 6.0 0.00 0.00 0.00 84 1029.8
20190920073131 49 251 2.0 5.0 0.00 0.00 0.00 85 1029.8
20190920071620 48 252 4.0 7.0 0.00 0.00 0.00 85 1029.7
20190920070111 47 316 0.0 3.0 0.00 0.00 0.00 88 1029.7
20190920064557 46 316 0.0 3.0 0.00 0.00 0.00 88 1029.6
20190920063133 45 316 0.0 3.0 0.00 0.00 0.00 88 1029.6
20190920061639 45 316 0.0 2.0 0.00 0.00 0.00 89 1029.5
20190920060116 44 316 0.0 1.0 0.00 0.00 0.00 90 1029.3
20190920054556 44 316 0.0 0.0 0.00 0.00 0.00 90 1029.3
20190920053138 44 316 0.0 0.0 0.00 0.00 0.00 91 1029.2
20190920051555 44 316 0.0 0.0 0.00 0.00 0.00 91 1029.2
20190920050116 44 316 0.0 1.0 0.00 0.00 0.00 90 1029.3
20190920044537 44 316 0.0 0.0 0.00 0.00 0.00 91 1029.2
20190920043120 43 316 0.0 0.0 0.00 0.00 0.00 91 1029.2
20190920041542 43 316 0.0 0.0 0.00 0.00 0.00 90 1029.3
20190920040207 43 316 0.0 0.0 0.00 0.00 0.00 90 1029.3
20190920034531 44 316 0.0 0.0 0.00 0.00 0.00 90 1029.3
20190920033044 44 316 0.0 0.0 0.00 0.00 0.00 89 1029.4
20190920031528 44 316 0.0 0.0 0.00 0.00 0.00 90 1029.4
20190920030055 44 316 0.0 0.0 0.00 0.00 0.00 89 1029.6
20190920024541 44 316 0.0 0.0 0.00 0.00 0.00 90 1029.4
20190920023056 45 316 0.0 0.0 0.00 0.00 0.00 89 1029.5
20190920021542 45 316 0.0 0.0 0.00 0.00 0.00 89 1029.6
20190920020027 46 316 0.0 0.0 0.00 0.00 0.00 88 1029.5
20190920014602 47 316 0.0 2.0 0.00 0.00 0.00 89 1029.5
20190920013054 46 316 0.0 0.0 0.00 0.00 0.00 90 1029.6
20190920011541 45 316 0.0 0.0 0.00 0.00 0.00 90 1029.7
20190920010052 45 316 0.0 0.0 0.00 0.00 0.00 88 1029.7
20190920004534 45 316 0.0 0.0 0.00 0.00 0.00 87 1029.7
20190920003032 46 316 0.0 0.0 0.00 0.00 0.00 88 1029.6
20190920001515 46 316 0.0 0.0 0.00 0.00 0.00 88 1029.6
20190920000018 46 316 0.0 0.0 0.00 0.00 0.00 87 1029.8
20190919234513 47 316 0.0 0.0 0.00 0.00 0.00 87 1029.9
20190919233009 47 316 0.0 0.0 0.00 0.00 0.00 86 1029.8
20190919231517 47 316 0.0 0.0 0.00 0.00 0.00 88 1029.8
20190919230009 47 316 0.0 0.0 0.00 0.00 0.00 87 1029.9
20190919224515 46 316 0.0 0.0 0.00 0.00 0.00 87 1029.9
20190919223005 47 316 0.0 0.0 0.00 0.00 0.00 85 1029.9
20190919221756 48 316 0.0 0.0 0.00 0.00 0.00 83 1030.0
20190919220127 49 316 0.0 0.0 0.00 0.00 0.00 81 1030.0
20190919214839 51 316 0.0 0.0 0.00 0.00 0.00 76 1029.9
20190919213110 53 316 0.0 0.0 0.00 0.00 0.00 73 1030.0
20190919211631 53 316 0.0 0.0 0.00 0.00 0.00 78 1030.0
20190919210112 48 336 0.0 0.0 0.00 0.00 0.00 83 1030.1
20190919204636 48 1 0.0 0.0 0.00 0.00 0.00 82 1029.9
20190919203129 48 1 0.0 0.0 0.00 0.00 0.00 80 1029.9
20190919201641 49 1 0.0 0.0 0.00 0.00 0.00 80 1029.8
20190919200158 50 1 0.0 0.0 0.00 0.00 0.00 76 1029.8
20190919194625 51 1 0.0 0.0 0.00 0.00 0.00 71 1029.7
20190919193109 51 360 0.0 0.0 0.00 0.00 0.00 71 1029.6
20190919191629 51 359 0.0 0.0 0.00 0.00 0.00 72 1029.5
20190919190054 52 358 0.0 0.0 0.00 0.00 0.00 71 1029.4
20190919184625 52 357 0.0 0.0 0.00 0.00 0.00 70 1029.3
20190919183150 53 349 0.0 0.0 0.00 0.00 0.00 70 1029.1
20190919181645 54 349 0.0 0.0 0.00 0.00 0.00 69 1029.2
20190919180122 56 344 0.0 0.0 0.00 0.00 0.00 65 1028.8
20190919174645 58 336 0.0 0.0 0.00 0.00 0.00 61 1028.8
20190919173230 58 334 2.0 5.0 0.00 0.00 0.00 58 1028.8
20190919171556 58 331 3.0 5.0 0.00 0.00 0.00 58 1028.7
20190919170115 59 335 3.0 6.0 0.00 0.24 0.00 59 1028.6
20190919164650 59 331 1.0 5.0 0.00 0.24 0.00 56 1028.5
20190919163112 59 332 2.0 6.0 0.00 0.24 0.00 54 1028.4
20190919161638 59 326 5.0 9.0 0.00 0.24 0.00 54 1028.5
20190919160057 60 332 10.0 14.0 0.00 0.24 0.00 56 1028.5
20190919154638 60 340 8.0 10.0 0.00 0.24 0.00 54 1028.3
20190919153110 60 321 3.0 9.0 0.00 0.24 0.00 48 1028.4
20190919151620 60 355 5.0 12.0 0.00 0.24 0.00 55 1028.3
20190919150106 60 316 8.0 13.0 0.00 0.24 0.00 46 1028.4
20190919144613 60 330 5.0 9.0 0.00 0.24 0.00 53 1028.5
20190919143030 59 340 6.0 11.0 0.00 0.24 0.00 55 1028.6
20190919141536 59 340 11.0 14.0 0.00 0.24 0.00 53 1028.7
20190919140035 59 284 0.0 6.0 0.00 0.25 0.00 54 1028.8
20190919134530 59 294 7.0 9.0 0.00 0.25 0.00 59 1028.9
20190919133025 59 311 6.0 10.0 0.00 0.25 0.00 58 1028.9
20190919131533 59 304 0.0 5.0 0.00 0.25 0.00 54 1029.0
20190919130020 59 316 3.0 6.0 0.00 0.25 0.00 55 1029.0
20190919124527 58 337 0.0 5.0 0.00 0.25 0.00 57 1029.2
20190919123038 58 326 5.0 12.0 0.00 0.25 0.00 57 1029.2
20190919121535 58 340 3.0 9.0 0.00 0.25 0.00 53 1029.5
20190919120040 58 349 1.0 9.0 0.00 0.25 0.00 59 1029.5
20190919114529 58 311 2.0 9.0 0.00 0.25 0.00 53 1029.5